[[{"header":{"parameterUnit":"m.s-1","parameterCategory":1,"la1":30.2991,"la2":30.254,"lo1":-89.0895,"lo2":-89.0444,"dy":0.0017,"dx":0.0017,"nx":28,"ny":28,"refTime":"2025-07-28T03:00:00:Z","depth":0,"parameterNumber":2,"parameterNumberName":"U-component_of_WINDS"},"data":[0,0,0,0,0,0,0,0,0,0,0,0,0,0,0,0,0,0,0,0,0,0,0,0,0,0,0,0,0,0,0,0,0,0,0,0,0,0,0,0,0,0,0,0,0,0,0,0,0,0,0,0,0,0,0,0,0,0,2.0084,2.0084,0,2.0088,2.0088,2.0088,2.0045,2.0044,2.0043,2.0042,2.0046,2.0047,2.0048,0,0,0,0,0,0,0,0,0,0,0,0,0,2.004,2.0042,2.0084,2.0084,2.0084,2.0088,2.0088,2.0088,2.0045,2.0044,2.0043,2.0041,2.0045,2.0047,2.0048,0,0,0,0,0,0,0,0,0,0,0,0,0,2.0053,2.0042,2.0084,2.0063,2.0062,2.0088,2.0088,2.0088,2.0046,2.0044,2.0042,2.0041,2.0045,2.0047,2.0048,2.0095,0,0,2.0054,2.0055,0,0,0,0,0,0,0,0,2.0053,2.0055,2.0066,2.0065,2.0063,2.0064,2.0074,2.009,2.0046,2.0052,2.0042,2.004,2.0053,2.0054,2.0059,2.0095,2.0095,2.0054,2.0055,2.0056,2.0056,0,0,0,0,0,0,0,2.0052,2.0055,2.0085,2.0067,2.0064,2.0054,2.0054,2.0077,2.0062,2.0051,2.0048,2.0049,2.0052,2.0057,2.0059,2.0095,2.0054,2.0056,2.0057,2.0057,2.017,2.0172,0,0,0,0,0,0,2.0054,2.0054,2.0085,2.0086,2.0053,2.0056,2.0056,2.0066,2.0062,2.006,2.0051,2.0047,2.0055,2.0057,2.0059,2.0113,2.0056,2.0058,2.0059,2.0168,2.017,2.0172,0,0,0,0,0,0,2.0053,2.0057,2.0085,2.0069,2.0072,2.0059,2.007,2.0067,2.0072,2.0062,2.0059,2.0059,2.0054,2.0056,2.0086,2.0113,2.0058,2.006,2.0166,2.0169,2.0171,2.0222,0,0,0,0,0,0,2.0052,2.0057,2.0074,2.007,2.0073,2.0113,2.0071,2.0068,2.0075,2.007,2.0068,2.0066,2.0053,2.0084,2.0088,2.0114,2.0061,2.0163,2.0167,2.017,2.0218,2.0226,2.0233,0,0,0,0,0,2.005,2.0088,2.0075,2.0079,2.0094,2.0114,2.0116,2.0099,2.0077,2.0095,2.0088,2.0066,2.0109,2.0087,2.0092,2.0119,2.0162,2.0166,2.017,2.0214,2.0224,2.0233,0,0,0,0,0,0,2.0095,2.0087,2.0073,2.011,2.0113,2.0107,2.0128,2.0111,2.012,2.0115,2.0095,2.0094,2.0128,2.0126,2.0102,2.0164,2.0131,2.0137,2.0164,2.0173,2.0181,2.018,2.0063,0,0,0,0,0,2.0109,2.0126,2.0118,2.0152,2.0154,2.0141,2.0149,2.0136,2.0139,2.014,2.0136,2.0139,2.0153,2.0163,2.0175,2.0217,2.0217,2.0238,2.0246,2.0252,2.0257,2.028,2.029,2.0187,2.0187,2.0186,0,0,2.0139,2.0136,2.0148,2.0161,2.0162,2.018,2.0142,2.0163,2.0177,2.0143,2.0171,2.0169,2.0171,2.0208,2.0223,2.0207,2.0286,2.0258,2.0263,2.0265,2.0286,2.0296,2.0304,2.019,2.0189,2.0189,0,0,2.0202,2.0202,2.023,2.0232,2.0234,2.0225,2.0232,2.0229,2.0226,2.0254,2.023,2.0246,2.027,2.0273,2.0278,2.0344,2.0325,2.0349,2.0389,2.0412,2.042,2.0427,2.0451,2.046,2.0354,2.0354,2.0354,0,2.0238,2.0264,2.0246,2.0269,2.0276,2.0247,2.0276,2.0278,2.0285,2.029,2.0272,2.0303,2.0302,2.034,2.0356,2.0361,2.0368,2.0349,2.042,2.0427,2.0433,2.0456,2.0465,2.0357,2.0356,2.0356,2.0356,0,2.0309,2.0328,2.0351,2.0358,2.0367,2.0393,2.0379,2.0391,2.0377,2.0371,2.04,2.0399,2.0411,2.0419,2.0406,2.0455,2.0445,2.0424,2.0391,2.0447,2.0468,2.0476,2.0361,2.036,2.0359,2.0358,0,0,2.04,2.0398,2.0406,2.041,2.0411,2.0425,2.045,2.0462,2.0472,2.0478,2.0499,2.0521,2.0502,2.0507,2.0495,2.0514,2.0568,2.0491,2.0491,2.0506,2.0622,2.0638,2.0648,2.0555,2.0556,2.0558,2.0622,0,2.0462,2.0504,2.0489,2.0532,2.0549,2.0523,2.0544,2.0548,2.0543,2.0557,2.0551,2.0568,2.0541,2.0544,2.0563,2.0557,2.0591,2.0552,2.0574,2.0575,2.0574,2.0659,2.0676,2.0737,2.063,2.0631,2.0632,0,2.0539,2.0548,2.0593,2.0592,2.0599,2.0619,2.0629,2.0643,2.0647,2.0642,2.0649,2.0632,2.0657,2.0624,2.0659,2.0633,2.0641,2.064,2.0642,2.0643,2.0607,2.0663,2.0756,2.0765,2.0645,2.0644,2.0643,0,2.0601,2.0625,2.0655,2.0659,2.0658,2.0673,2.0673,2.0675,2.0684,2.0693,2.0698,2.0711,2.0717,2.0727,2.0714,2.0692,2.0751,2.0717,2.0748,2.0748,2.0761,2.076,2.0856,2.0766,2.0766,2.0766,2.0766,0,2.0672,2.07,2.0683,2.0702,2.0734,2.0717,2.0748,2.0746,2.0748,2.0766,2.0743,2.0761,2.0743,2.0759,2.0749,2.0779,2.0782,2.0779,2.0776,2.0781,2.0782,2.0786,2.0782,2.0768,2.0768,2.0767,2.0767,0,2.0746,2.0736,2.0767,2.0764,2.0764,2.0788,2.0786,2.0803,2.0797,2.082,2.0824,2.0814,2.0832,2.0821,2.0838,2.0832,2.0871,2.0862,2.087,2.0868,2.0899,2.0897,2.1002,2.1015,2.0916,2.0917,2.0918,0,2.0792,2.0814,2.0813,2.0824,2.0826,2.0843,2.0852,2.0837,2.0847,2.0853,2.087,2.0886,2.0898,2.0927,2.0922,2.0936,2.0927,2.0963,2.0929,2.0934,2.0928,2.0927,2.0929,2.097,2.0971,2.0972,2.0973,0,2.0875,2.0869,2.0882,2.0895,2.0906,2.0915,2.0922,2.0932,2.0917,2.0929,2.0947,2.0957,2.0975,2.0992,2.1003,2.1004,2.0986,2.0984,2.0991,2.0997,2.1001,2.0999,2.0889,2.0981,2.098,2.098,2.0979,2.0979,2.0936,2.0955,2.0958,2.0974,2.0978,2.0985,2.1002,2.0998,2.1013,2.1027,2.1017,2.1038,2.1042,2.1056,2.1059,2.1076,2.1062,2.1073,2.1076,2.1079,2.1083,2.0998,2.1078,2.1078,2.1078,2.1078,2.1077,0,2.1018,2.1019,2.1034,2.1045,2.1058,2.1041,2.1048,2.106,2.1079,2.1085,2.1097,2.1118,2.1134,2.1131,2.1145,2.1159,2.1152,2.1164,2.1163,2.1163,2.1095,2.1087,2.117,2.117,2.117,2.117,2.117,2.117,2.1062,2.1092,2.1087,2.1119,2.112,2.1141,2.1147,2.1154,2.1158,2.1183,2.1196,2.1194,2.1196,2.121,2.1224,2.1223,2.123,2.1245,2.124,2.1177,2.1168,2.1159,2.1152,2.1246,2.1246,2.1307,2.1307,2.1308]},{"header":{"parameterUnit":"m.s-1","parameterCategory":1,"la1":30.2991,"la2":30.254,"lo1":-89.0895,"lo2":-89.0444,"dy":0.0017,"dx":0.0017,"nx":28,"ny":28,"refTime":"2025-07-28T03:00:00:Z","depth":0,"parameterNumber":3,"parameterNumberName":"V-component_of_WINDS"},"data":[0,0,0,0,0,0,0,0,0,0,0,0,0,0,0,0,0,0,0,0,0,0,0,0,0,0,0,0,0,0,0,0,0,0,0,0,0,0,0,0,0,0,0,0,0,0,0,0,0,0,0,0,0,0,0,0,0,0,-2.562,-2.5621,0,-2.5681,-2.5682,-2.5683,-2.5662,-2.5661,-2.5659,-2.5658,-2.572,-2.5723,-2.5725,0,0,0,0,0,0,0,0,0,0,0,0,0,-2.5485,-2.5488,-2.562,-2.5621,-2.5621,-2.5681,-2.5682,-2.5683,-2.5662,-2.5661,-2.5659,-2.5658,-2.5719,-2.5722,-2.5726,0,0,0,0,0,0,0,0,0,0,0,0,0,-2.5545,-2.5488,-2.562,-2.5619,-2.5619,-2.5681,-2.5682,-2.5683,-2.5663,-2.5661,-2.5659,-2.5657,-2.5718,-2.5722,-2.5726,-2.5793,0,0,-2.5739,-2.5741,0,0,0,0,0,0,0,0,-2.5541,-2.555,-2.5618,-2.5619,-2.5619,-2.5662,-2.5657,-2.572,-2.5663,-2.5646,-2.5658,-2.5656,-2.5702,-2.5708,-2.5723,-2.5796,-2.5798,-2.574,-2.5742,-2.5744,-2.5745,0,0,0,0,0,0,0,-2.5537,-2.5547,-2.5644,-2.5619,-2.562,-2.5615,-2.5621,-2.5669,-2.5684,-2.5647,-2.5646,-2.5654,-2.5702,-2.5719,-2.5725,-2.5799,-2.574,-2.5743,-2.5746,-2.5748,-2.593,-2.5932,0,0,0,0,0,0,-2.5533,-2.5544,-2.5642,-2.5646,-2.5575,-2.5619,-2.5626,-2.565,-2.5684,-2.5687,-2.5655,-2.5652,-2.5713,-2.572,-2.5727,-2.5808,-2.5744,-2.5748,-2.5751,-2.5928,-2.593,-2.5933,0,0,0,0,0,0,-2.553,-2.5542,-2.564,-2.5594,-2.5607,-2.5623,-2.5651,-2.5653,-2.567,-2.569,-2.5692,-2.567,-2.5712,-2.5721,-2.5777,-2.5809,-2.575,-2.5754,-2.5925,-2.5928,-2.5932,-2.597,0,0,0,0,0,0,-2.5526,-2.5541,-2.5566,-2.5595,-2.5609,-2.5689,-2.5653,-2.5655,-2.5677,-2.5674,-2.5704,-2.5707,-2.5711,-2.577,-2.5781,-2.5814,-2.5757,-2.5922,-2.5927,-2.593,-2.5965,-2.5974,-2.5981,0,0,0,0,0,-2.5521,-2.5574,-2.5568,-2.558,-2.5641,-2.5691,-2.5699,-2.5702,-2.568,-2.5706,-2.5719,-2.5707,-2.5804,-2.5776,-2.5788,-2.5823,-2.592,-2.5925,-2.593,-2.5962,-2.5972,-2.5981,0,0,0,0,0,0,-2.5548,-2.5578,-2.5571,-2.5635,-2.5661,-2.5687,-2.572,-2.5712,-2.5744,-2.574,-2.5742,-2.5749,-2.5807,-2.582,-2.5789,-2.589,-2.5859,-2.5866,-2.5879,-2.5889,-2.5896,-2.5892,-2.5761,0,0,0,0,0,-2.5562,-2.56,-2.5623,-2.5677,-2.5691,-2.5703,-2.5725,-2.5725,-2.5752,-2.5762,-2.5779,-2.5805,-2.5842,-2.5866,-2.5901,-2.5967,-2.5974,-2.5997,-2.6005,-2.6011,-2.6018,-2.6055,-2.6066,-2.5949,-2.5949,-2.5949,0,0,-2.559,-2.5611,-2.5634,-2.5683,-2.5703,-2.5743,-2.5712,-2.5755,-2.5784,-2.5769,-2.5823,-2.5836,-2.5866,-2.5927,-2.5955,-2.594,-2.6051,-2.6017,-2.6022,-2.6026,-2.6061,-2.6072,-2.6082,-2.5953,-2.5952,-2.5952,0,0,-2.5661,-2.5681,-2.5728,-2.5749,-2.578,-2.5788,-2.5799,-2.5827,-2.5836,-2.5891,-2.588,-2.5914,-2.5977,-2.5999,-2.6018,-2.6098,-2.6088,-2.6109,-2.615,-2.6186,-2.6195,-2.6203,-2.6233,-2.6243,-2.6116,-2.6116,-2.6116,0,-2.5692,-2.5751,-2.5753,-2.5797,-2.5819,-2.5807,-2.5856,-2.5876,-2.5916,-2.5932,-2.5914,-2.5993,-2.6012,-2.6079,-2.6099,-2.6115,-2.6128,-2.6106,-2.6194,-2.6202,-2.6209,-2.6238,-2.6248,-2.6118,-2.6118,-2.6118,-2.6117,0,-2.5788,-2.5829,-2.5864,-2.5904,-2.593,-2.5976,-2.5985,-2.6011,-2.6009,-2.6019,-2.6075,-2.6097,-2.6136,-2.6152,-2.615,-2.6219,-2.6209,-2.6193,-2.6162,-2.6223,-2.6249,-2.626,-2.6122,-2.6121,-2.612,-2.612,0,0,-2.5878,-2.5919,-2.5932,-2.5951,-2.5984,-2.6016,-2.6061,-2.61,-2.6123,-2.6151,-2.6189,-2.6243,-2.6228,-2.625,-2.625,-2.6282,-2.6345,-2.6262,-2.6263,-2.6277,-2.6424,-2.6437,-2.6449,-2.6339,-2.6341,-2.6342,-2.6422,0,-2.5953,-2.6033,-2.6037,-2.611,-2.6148,-2.6138,-2.6177,-2.6202,-2.6213,-2.6247,-2.6258,-2.6297,-2.6274,-2.6287,-2.6318,-2.6331,-2.6375,-2.6325,-2.6375,-2.6377,-2.6369,-2.6463,-2.6476,-2.655,-2.6432,-2.6434,-2.6435,0,-2.6051,-2.6083,-2.616,-2.6189,-2.6205,-2.6241,-2.6277,-2.631,-2.6338,-2.6343,-2.6368,-2.6364,-2.6411,-2.6378,-2.6442,-2.6409,-2.6429,-2.6439,-2.6441,-2.6447,-2.641,-2.6471,-2.6573,-2.6585,-2.6451,-2.645,-2.6449,0,-2.611,-2.6173,-2.6227,-2.6243,-2.6277,-2.6303,-2.6318,-2.6344,-2.6368,-2.6399,-2.6415,-2.6451,-2.6472,-2.65,-2.6506,-2.6481,-2.6571,-2.6538,-2.6577,-2.6577,-2.6597,-2.6596,-2.6705,-2.6609,-2.6609,-2.6608,-2.6608,0,-2.6194,-2.6242,-2.6254,-2.6288,-2.6341,-2.6345,-2.6398,-2.6411,-2.6435,-2.6471,-2.6463,-2.6497,-2.6503,-2.6538,-2.6543,-2.6596,-2.6605,-2.6611,-2.6612,-2.6613,-2.6612,-2.6626,-2.6622,-2.6611,-2.6611,-2.661,-2.661,0,-2.627,-2.628,-2.6339,-2.6367,-2.6375,-2.6413,-2.6437,-2.6469,-2.6479,-2.6525,-2.6536,-2.6551,-2.6592,-2.6601,-2.665,-2.6653,-2.6717,-2.6712,-2.6708,-2.6707,-2.6746,-2.6743,-2.6869,-2.6886,-2.6778,-2.6779,-2.678,0,-2.6323,-2.6359,-2.6391,-2.6415,-2.6432,-2.6471,-2.6495,-2.65,-2.6525,-2.656,-2.6588,-2.6629,-2.6662,-2.6728,-2.6744,-2.6781,-2.6778,-2.6819,-2.6783,-2.6783,-2.6779,-2.6778,-2.6782,-2.6826,-2.6828,-2.6828,-2.6829,0,-2.6416,-2.642,-2.6455,-2.6492,-2.6521,-2.6551,-2.6579,-2.6599,-2.6608,-2.6636,-2.6679,-2.6704,-2.6755,-2.6795,-2.6833,-2.6849,-2.6841,-2.684,-2.6852,-2.6853,-2.6849,-2.6853,-2.6727,-2.6838,-2.6837,-2.6836,-2.6836,-2.6835,-2.6483,-2.6515,-2.6543,-2.6583,-2.6605,-2.6631,-2.6663,-2.6677,-2.6713,-2.6755,-2.6755,-2.6802,-2.6829,-2.6879,-2.6897,-2.6933,-2.692,-2.6936,-2.6941,-2.6945,-2.6949,-2.6843,-2.694,-2.694,-2.694,-2.6939,-2.6939,0,-2.6577,-2.6595,-2.6631,-2.6671,-2.6702,-2.6692,-2.6723,-2.675,-2.6791,-2.6817,-2.685,-2.6899,-2.6939,-2.6957,-2.6996,-2.7022,-2.702,-2.7032,-2.7031,-2.7035,-2.6958,-2.6945,-2.7034,-2.7034,-2.7034,-2.7034,-2.7034,-2.7034,-2.663,-2.6685,-2.6691,-2.6757,-2.6774,-2.682,-2.6838,-2.6863,-2.6884,-2.694,-2.6973,-2.6984,-2.7008,-2.7049,-2.7085,-2.7089,-2.7104,-2.7119,-2.7122,-2.705,-2.704,-2.7031,-2.7019,-2.7122,-2.7122,-2.7196,-2.7197,-2.7197]}]]